Change the Weather History Date:

Sunday, May 26, 2013

  Actual Average (KUIN) Record (KUIN)
Temperature  
Mean Temperature 65 °F 66 °F  
Max Temperature 77 °F 76 °F 95 °F (1911)
Min Temperature 53 °F 56 °F 36 °F (1901)
Degree Days  
Heating Degree Days 0 3  
Month to date heating degree days 126  
Since 1 July heating degree days 5556  
Cooling Degree Days 0 3  
Month to date cooling degree days 48  
Year to date cooling degree days 66  
Growing Degree Days 15 (Base 50)    
Moisture  
Dew Point 57 °F    
Average Humidity 76    
Maximum Humidity 93    
Minimum Humidity 64    
Precipitation  
Precipitation 0.68 in 0.16 in 2.11 in (2000)
Month to date precipitation 3.76  
Year to date precipitation 13.31  
Sea Level Pressure  
Sea Level Pressure 30.12 in    
Wind  
Wind Speed 9 mph (ESE)    
Max Wind Speed 15 mph    
Max Gust Speed 24 mph    
Visibility 10 miles    
Events Rain , Thunderstorm    
T = Trace of Precipitation, MM = Missing Value Source: NWS Daily Summary

Daily Weather History Graph

Daily Weather History Graph

Search for Another Location

Airport or City:

Trip Planner

Search our weather history database for the weather conditions in past years. The results will help you decide how hot, cold, wet, or windy it might be!

Date:

Astronomy

May. 26, 2013 Rise Set
Actual Time 5:40 AM CDT 8:20 PM CDT
Civil Twilight 5:08 AM CDT 8:52 PM CDT
Nautical Twilight 4:29 AM CDT 9:31 PM CDT
Astronomical Twilight 3:45 AM CDT 10:15 PM CDT
Moon 10:08 PM CDT (5/26) 7:09 AM CDT (5/26)
Length of Visible Light 15h 43m
Length of Day
14h 40m
Waning Gibbous, 96% of the Moon is Illuminated
May 26
Waning Gibbous
May 31
Last Quarter
Jun 8
New
Jun 16
First Quarter
Jun 23
Full

Hourly Weather History & Observations

Time (CDT) Temp. Dew Point Humidity Pressure Visibility Wind Dir Wind Speed Gust Speed Precip Events Conditions
12:15 AM 55.9 °F 49.1 °F 78% 30.21 in 10.0 mi East 9.2 mph - N/A   Overcast
12:35 AM 55.6 °F 48.7 °F 78% 30.20 in 10.0 mi East 11.5 mph - N/A   Mostly Cloudy
12:55 AM 55.4 °F 48.4 °F 77% 30.21 in 10.0 mi East 9.2 mph - N/A   Overcast
1:15 AM 55.4 °F 47.8 °F 76% 30.20 in 10.0 mi East 13.8 mph 18.4 mph N/A   Overcast
1:35 AM 55.4 °F 47.5 °F 75% 30.20 in 10.0 mi East 10.4 mph - N/A   Mostly Cloudy
1:55 AM 54.9 °F 47.7 °F 77% 30.18 in 10.0 mi East 11.5 mph - N/A Thunderstorm Scattered Clouds
2:15 AM 54.5 °F 47.8 °F 78% 30.19 in 10.0 mi East 9.2 mph - N/A   Scattered Clouds
2:35 AM 54.5 °F 48.2 °F 79% 30.18 in 10.0 mi East 8.1 mph - N/A   Scattered Clouds
2:55 AM 54.5 °F 48.4 °F 80% 30.18 in 10.0 mi East 9.2 mph - N/A Thunderstorm Clear
3:15 AM 54.5 °F 48.4 °F 80% 30.18 in 10.0 mi East 9.2 mph - N/A   Clear
3:35 AM 54.1 °F 48.2 °F 80% 30.17 in 10.0 mi East 8.1 mph - N/A   Clear
3:55 AM 53.8 °F 48.2 °F 81% 30.16 in 10.0 mi ESE 9.2 mph - N/A Thunderstorm Clear
4:15 AM 54.0 °F 48.0 °F 80% 30.17 in 10.0 mi East 8.1 mph - N/A Thunderstorm Clear
4:35 AM 54.0 °F 48.2 °F 81% 30.17 in 10.0 mi East 8.1 mph - N/A Thunderstorm Clear
4:55 AM 54.0 °F 48.2 °F 81% 30.17 in 10.0 mi East 8.1 mph - N/A Thunderstorm Scattered Clouds
5:15 AM 53.8 °F 48.6 °F 82% 30.17 in 10.0 mi East 8.1 mph - N/A   Mostly Cloudy
5:35 AM 53.6 °F 48.6 °F 83% 30.17 in 10.0 mi East 6.9 mph - N/A   Mostly Cloudy
5:55 AM 53.8 °F 48.7 °F 83% 30.17 in 10.0 mi East 6.9 mph - N/A Thunderstorm Scattered Clouds
6:15 AM 53.8 °F 49.1 °F 84% 30.17 in 10.0 mi East 5.8 mph - N/A   Scattered Clouds
6:35 AM 54.0 °F 49.1 °F 84% 30.18 in 10.0 mi East 8.1 mph - N/A   Scattered Clouds
6:55 AM 54.9 °F 49.5 °F 82% 30.18 in 10.0 mi East 6.9 mph - N/A   Mostly Cloudy
7:15 AM 55.4 °F 49.6 °F 81% 30.18 in 10.0 mi East 9.2 mph - N/A   Overcast
7:35 AM 56.3 °F 49.8 °F 79% 30.19 in 10.0 mi ESE 9.2 mph - N/A   Mostly Cloudy
7:55 AM 57.0 °F 50.2 °F 78% 30.17 in 10.0 mi ESE 12.7 mph 16.1 mph N/A   Scattered Clouds
8:15 AM 58.6 °F 51.4 °F 77% 30.16 in 10.0 mi SE 15.0 mph - N/A   Scattered Clouds
8:35 AM 59.0 °F 51.4 °F 76% 30.17 in 10.0 mi SE 13.8 mph - N/A   Clear
8:55 AM 60.6 °F 52.9 °F 76% 30.16 in 10.0 mi SE 12.7 mph - N/A   Clear
9:15 AM 61.0 °F 52.7 °F 74% 30.17 in 10.0 mi SE 10.4 mph - N/A   Scattered Clouds
9:35 AM 60.6 °F 52.7 °F 75% 30.18 in 10.0 mi ESE 9.2 mph - N/A Rain Rain
9:55 AM 61.9 °F 54.0 °F 75% 30.18 in 10.0 mi ESE 9.2 mph - N/A   Scattered Clouds
10:15 AM 64.0 °F 55.2 °F 73% 30.18 in 10.0 mi ENE 5.8 mph - N/A   Scattered Clouds
10:35 AM 65.3 °F 56.1 °F 72% 30.19 in 10.0 mi ENE 6.9 mph - N/A   Mostly Cloudy
10:55 AM 64.9 °F 55.4 °F 71% 30.18 in 10.0 mi ENE 10.4 mph - N/A   Overcast
11:15 AM 66.0 °F 55.6 °F 69% 30.17 in 10.0 mi ENE 9.2 mph - N/A   Scattered Clouds
11:35 AM 67.3 °F 56.7 °F 69% 30.17 in 10.0 mi East 8.1 mph - N/A   Clear
11:55 AM 67.5 °F 56.7 °F 68% 30.17 in 10.0 mi East 9.2 mph - N/A   Clear
12:15 PM 68.7 °F 58.5 °F 70% 30.16 in 10.0 mi East 8.1 mph - N/A   Clear
12:35 PM 70.2 °F 59.0 °F 68% 30.16 in 10.0 mi ESE 10.4 mph - N/A   Clear
12:55 PM 70.9 °F 59.7 °F 68% 30.15 in 10.0 mi ESE 9.2 mph - N/A   Clear
1:15 PM 70.9 °F 60.1 °F 69% 30.15 in 10.0 mi ESE 10.4 mph - N/A   Scattered Clouds
1:35 PM 71.6 °F 60.4 °F 68% 30.14 in 10.0 mi ESE 10.4 mph - N/A   Scattered Clouds
1:55 PM 70.9 °F 60.4 °F 69% 30.13 in 10.0 mi ESE 10.4 mph - N/A   Scattered Clouds
2:15 PM 72.3 °F 61.2 °F 68% 30.12 in 10.0 mi ESE 11.5 mph - N/A   Scattered Clouds
2:35 PM 73.8 °F 62.2 °F 67% 30.11 in 10.0 mi ESE 13.8 mph 17.3 mph N/A   Clear
2:55 PM 74.3 °F 62.1 °F 65% 30.10 in 10.0 mi SE 15.0 mph 18.4 mph N/A   Clear
3:15 PM 74.8 °F 62.8 °F 66% 30.10 in 10.0 mi SE 12.7 mph - N/A   Clear
3:35 PM 74.5 °F 63.0 °F 67% 30.08 in 10.0 mi SE 12.7 mph - N/A   Clear
3:55 PM 74.3 °F 62.6 °F 67% 30.08 in 10.0 mi ESE 12.7 mph - N/A   Clear
4:15 PM 74.8 °F 63.0 °F 66% 30.07 in 10.0 mi SE 12.7 mph - N/A   Clear
4:35 PM 76.5 °F 64.0 °F 65% 30.06 in 10.0 mi SE 11.5 mph 16.1 mph N/A   Clear
4:55 PM 76.3 °F 64.0 °F 66% 30.05 in 10.0 mi ESE 12.7 mph - N/A   Clear
5:15 PM 77.0 °F 64.0 °F 64% 30.04 in 10.0 mi SE 12.7 mph - N/A   Clear
5:35 PM 75.4 °F 63.9 °F 67% 30.04 in 10.0 mi ESE 9.2 mph - N/A   Clear
5:55 PM 75.2 °F 64.0 °F 68% 30.03 in 10.0 mi East 10.4 mph - N/A   Scattered Clouds
6:15 PM 74.8 °F 63.5 °F 68% 30.03 in 10.0 mi ESE 9.2 mph - N/A   Mostly Cloudy
6:35 PM 74.1 °F 63.5 °F 69% 30.02 in 10.0 mi ESE 9.2 mph - N/A   Mostly Cloudy
6:55 PM 73.4 °F 63.7 °F 71% 30.02 in 10.0 mi ESE 9.2 mph - N/A   Scattered Clouds
7:15 PM 72.7 °F 63.9 °F 74% 30.02 in 10.0 mi ESE 6.9 mph - N/A   Clear
7:35 PM 72.5 °F 63.5 °F 73% 30.01 in 10.0 mi ESE 6.9 mph - N/A   Clear
7:55 PM 71.8 °F 63.5 °F 75% 30.01 in 10.0 mi ESE 8.1 mph - N/A   Scattered Clouds
8:15 PM 71.6 °F 63.0 °F 74% 30.00 in 10.0 mi ESE 9.2 mph - N/A Thunderstorm Mostly Cloudy
8:35 PM 71.6 °F 62.8 °F 74% 30.01 in 10.0 mi Calm Calm - N/A Rain Light Rain
8:55 PM 70.9 °F 63.1 °F 76% 30.01 in 10.0 mi NE 3.5 mph - N/A   Mostly Cloudy
9:15 PM 70.0 °F 63.5 °F 80% 30.02 in 7.0 mi Calm Calm - 0.01 in Rain , Thunderstorm Heavy Thunderstorms and Rain
9:35 PM 68.4 °F 64.2 °F 87% 30.03 in 7.0 mi West 8.1 mph - 0.17 in Rain , Thunderstorm Light Thunderstorms and Rain
9:55 PM 68.7 °F 64.4 °F 86% 30.01 in 2.0 mi ESE 12.7 mph 24.2 mph 0.67 in Rain , Thunderstorm Heavy Thunderstorms and Rain
10:15 PM 67.6 °F 63.9 °F 88% 30.02 in 10.0 mi ESE 3.5 mph - 0.01 in Thunderstorm Scattered Clouds
10:35 PM 66.7 °F 64.0 °F 91% 30.03 in 7.0 mi East 5.8 mph - 0.01 in   Clear
10:55 PM 66.4 °F 63.7 °F 91% 30.02 in 7.0 mi East 3.5 mph - 0.01 in   Clear
11:15 PM 65.8 °F 63.7 °F 93% 30.01 in 5.0 mi ESE 5.8 mph - N/A Thunderstorm Clear
11:35 PM 66.4 °F 64.4 °F 93% 30.01 in 7.0 mi SE 5.8 mph - N/A   Scattered Clouds
11:55 PM 66.7 °F 64.0 °F 91% 30.01 in 10.0 mi SE 3.5 mph - N/A   Scattered Clouds